IR1AA-3 Weather Reports


time (UTC)temp
F
wind
direction
speed
knots
gust
knots
rain 1hr
in
rain 24hr
in
rain mn
in
humidity
%
barometer
mb
20260508013236 58 0.0 0.0 0.00 0.00 0.00 99 1011.8
20260508010236 58 0.0 0.0 0.00 0.00 0.00 99 1012.1
20260508003235 59 0.0 0.0 0.00 0.00 0.00 99 1012.4
20260508000235 59 0.0 0.0 0.00 0.00 0.00 99 1012.7
20260507233235 60 0.0 0.0 0.00 0.00 0.00 99 1013.0
20260507230234 60 0.0 0.0 0.00 0.00 0.00 99 1013.4
20260507223234 60 0.0 0.0 0.00 0.00 0.00 99 1013.4
20260507220234 61 0.0 0.0 0.00 0.00 0.00 99 1013.3
20260507213234 61 0.0 0.0 0.00 0.00 0.00 99 1013.5
20260507210233 61 0.0 0.0 0.00 0.00 0.00 99 1013.0
20260507203233 61 0.0 0.0 0.00 0.00 0.00 99 1013.1
20260507200232 62 0.0 0.0 0.00 0.00 0.00 99 1012.9
20260507193232 63 0.0 0.0 0.00 0.00 0.00 99 1012.6
20260507190232 63 0.0 0.0 0.00 0.00 0.00 99 1012.5
20260507183231 64 0.0 0.0 0.00 0.00 0.00 99 1012.4
20260507180231 65 0.0 0.0 0.00 0.00 0.00 99 1012.2
20260507173231 64 0.0 0.0 0.00 0.00 0.00 99 1012.2
20260507170230 65 0.0 0.0 0.00 0.00 0.00 99 1012.3
20260507163230 64 0.0 0.0 0.00 0.00 0.00 99 992.5
20260507160230 66 0.0 0.0 0.00 0.00 0.00 99 1012.0
20260507153230 66 0.0 0.0 0.00 0.00 0.00 99 1011.9
20260507150229 66 0.0 0.0 0.00 0.00 0.00 99 1012.1
20260507143229 66 0.0 0.0 0.00 0.00 0.00 99 1012.2
20260507141843 68 0.0 0.0 0.00 0.00 0.00 99 1011.9
20260507134842 67 0.0 0.0 0.00 0.00 0.00 99 1007.3
20260507131842 67 0.0 0.0 0.00 0.00 0.00 99 1012.5
20260507124842 68 0.0 0.0 0.00 0.00 0.00 99 1012.2
20260507121841 68 0.0 0.0 0.00 0.00 0.00 99 1011.9
20260507114841 69 0.0 0.0 0.00 0.00 0.00 99 1002.1
20260507111841 69 0.0 0.0 0.00 0.00 0.00 99 1012.2
20260507104840 70 0.0 0.0 0.00 0.00 0.00 99 1012.1
20260507101840 69 0.0 0.0 0.00 0.00 0.00 99 1012.3
20260507094840 67 0.0 0.0 0.00 0.00 0.00 99 999.4
20260507091839 67 0.0 0.0 0.00 0.00 0.00 99 1011.8
20260507084839 67 0.0 0.0 0.00 0.00 0.00 99 1001.2
20260507081839 65 0.0 0.0 0.00 0.00 0.00 99 1011.4
20260507074838 64 0.0 0.0 0.00 0.00 0.00 99 1011.3
20260507071838 63 0.0 0.0 0.00 0.00 0.00 99 1011.5
20260507064838 62 0.0 0.0 0.00 0.00 0.00 99 1011.1
20260507061837 62 0.0 0.0 0.00 0.00 0.00 99 1010.9
20260507054837 61 0.0 0.0 0.00 0.00 0.00 99 1010.8
20260507051837 58 0.0 0.0 0.00 0.00 0.00 99 1010.5
20260507044836 57 0.0 0.0 0.00 0.00 0.00 99 1010.2
20260507041836 57 0.0 0.0 0.00 0.00 0.00 99 1010.2
20260507034836 56 0.0 0.0 0.00 0.00 0.00 99 1010.0
20260507031835 57 0.0 0.0 0.00 0.00 0.00 99 1010.0
20260507025325 57 0.0 0.0 0.00 0.00 0.00 99 1009.9
20260507022325 57 0.0 0.0 0.00 0.00 0.00 99 1007.7
20260507015325 57 0.0 0.0 0.00 0.00 0.00 99 1009.6